Content
SEND FEEDBACK

Daily
Averages
Monthly
Summary
Syria

AL LATHQIYAH, SYRIA


Home > Middle East > Syria
Elevation: 23 feet     Latitude: 35 31N     Longitude: 035 46E

WEATHER
 
SELECT A DAY
Number of Records: 136,217;   Date Range: 10/26/97 - 8/12/14
 
SHARE

PRINT THIS DATA

[ ← Previous Day ]
WEATHER ALMANAC - MARCH 12, 2013
[ Next Day → ]
[ °C ]   °F
Weather ElementAverageHighLow
Temperature66.6 °F73.4 °F (11:00 am)59 °F (5:00 am)
Dewpoint51.8 °F57.2 °F (7:00 am)46.4 °F (3:00 am)
Humidity59 %94 % (7:00 am)43 % (8:00 pm)
Barometer29.88 in29.92 in (1:00 am)29.77 in (11:00 pm)
Wind Speed5.2 mph9.2 mph (11:00 am)
Weather ElementAverage
Visibility9 mi
Wind DirectionESE (110.8 °)

Weather ElementTotal
Precipitation---
Cooling Degree Days1.2 (Base 65)
Growing Degree Days16.2 (Base 50)
Averaged from 25 records on March 12, 2013
WEATHER CONDITIONS BREAKOUT
WIND DIRECTION BREAKOUT
WEATHER BY HOUR - MARCH 12, 2013
[ °C ]   °F
Local TimeTemperatureDewpointHumidityBarometerVisibilityWind DirectionWind SpeedGust SpeedPrecipitationEventsConditions
1:00 AM60.8 °F51.8 °F72 %29.92 inENE (60°)4.6 mphClear
2:00 AM60.8 °F51.8 °F72 %29.89 inEast (80°)4.6 mphClear
3:00 AM60.8 °F46.4 °F59 %29.89 inEast (80°)4.6 mphClear
5:00 AM59.0 °F50.0 °F72 %29.86 inNE (40°)4.6 mphClear
6:00 AM59.0 °F50.0 °F72 %29.86 inNE (50°)4.6 mphClear
7:00 AM59.0 °F57.2 °F94 %29.89 inNE (40°)4.6 mphClear
8:00 AM64.4 °F55.4 °F73 %29.92 inEast (90°)4.6 mphClear
8:00 AM63.0 °F53.0 °F60 %29.87 in9.0 miNNE (30°)2.2 mphMostly Cloudy
9:00 AM69.8 °F57.2 °F64 %29.92 inSE (140°)4.6 mphClear
10:00 AM71.6 °F57.2 °F60 %29.92 inSouth (180°)6.9 mphClear
11:00 AM73.4 °F51.8 °F47 %29.92 inSouth (190°)9.2 mphClear
12:00 PM71.6 °F51.8 °F50 %29.92 inSouth (190°)6.9 mphClear
1:00 PM71.6 °F51.8 °F50 %29.89 inSouth (180°)4.6 mphClear
2:00 PM70.0 °F54.0 °F47 %29.86 in9.0 miSSE (150°)6.7 mphMostly Cloudy
2:00 PM71.6 °F53.6 °F53 %29.89 inSSW (200°)4.6 mphClear
3:00 PM71.6 °F51.8 °F50 %29.89 inWSW (240°)4.6 mphClear
4:00 PM71.6 °F51.8 °F50 %29.89 inWSW (240°)4.6 mphClear
5:00 PM69.8 °F53.6 °F56 %29.86 inENE (60°)4.6 mphClear
6:00 PM69.8 °F51.8 °F53 %29.86 inENE (60°)4.6 mphClear
7:00 PM64.4 °F51.8 °F64 %29.86 inENE (70°)4.6 mphClear
8:00 PM69.0 °F51.0 °F43 %29.84 in9.0 miEast (90°)4.5 mphPartly Cloudy
8:00 PM66.2 °F50.0 °F56 %29.86 inENE (60°)4.6 mphClear
9:00 PM64.4 °F48.2 °F56 %29.83 inESE (110°)9.2 mphClear
10:00 PM64.4 °F46.4 °F52 %29.80 inNE (50°)5.8 mphClear
11:00 PM66.2 °F46.4 °F49 %29.77 inEast (90°)4.6 mphClear
Hourly data recorded from OSLK, located miles away from Al Lathqiyah, Syria







STORIES FROM OUR PARTNERS